Home   Weather   Novorossiysk   Past weeks

Flag for Russia Past Weather in Novorossiysk, Russia — Yesterday and Last 2 Weeks

Now
45 °F

Partly sunny.


Feels Like: 41 °F
Forecast: 29 / 39 °F
Wind: 6 mph from South

Location: Anapa / Vitiazevo

Current Time: Jan 24, 2017 at 4:20:58 pm

Latest Report: Jan 24, 2017 at 3:30 pm


Visibility: N/A

Pressure: 30.09 "Hg

Humidity: 76%

Dew Point: 37 °F

Location of NovorossiyskLocation

Past Weather in Novorossiysk — Graph

°F

Novorossiysk Temperature Yesterday

Maximum temperature yesterday: 39 °F (at 2:30 pm)
Minimum temperature yesterday: 18 °F (at 8:00 am)
Average temperature yesterday: 27 °F

High & Low Weather Summary for the Past Weeks

 TemperatureHumidityPressure
High52 °F (Jan 12, 11:30 am)100% (Jan 9, 3:00 pm)30.54 "Hg (Jan 9, 3:00 pm)
Low16 °F (Jan 21, 12:30 am)58% (Jan 12, 8:00 am)29.77 "Hg (Jan 12, 4:30 pm)
Average34 °F90%30.20 "Hg
* Reported Jan 9 3:00 pm — Jan 24 3:00 pm, Novorossiysk, Weather by CustomWeather, © 2017

Note: Actual official high and low records may vary slightly from our data, if they occured in-between our weather recording intervals... More about our weather records

Advertising

Novorossiysk Weather History for the Previous 24 Hours

Scroll right to see more
 ConditionsComfort  
Time TempWeatherWind HumidityBarometerVisibility
3:00 pm
Tue, Jan 24
45 °FPartly sunny.6 mph76%30.12 "HgN/A
2:30 pm45 °FPartly sunny.8 mph71%30.12 "HgN/A
2:00 pm45 °FPartly sunny.3 mph76%30.15 "HgN/A
1:30 pm45 °FPartly sunny.1 mph76%30.15 "HgN/A
1:00 pm45 °FPartly sunny.3 mph76%30.18 "HgN/A
12:30 pm45 °FPartly sunny.6 mph76%30.18 "HgN/A
12:00 pm45 °FPartly sunny.6 mph76%30.18 "HgN/A
11:30 am43 °FPartly sunny.8 mph81%30.21 "HgN/A
11:00 am41 °FPartly sunny.6 mph81%30.24 "HgN/A
10:30 am39 °FPartly sunny.6 mph93%30.24 "HgN/A
10:00 am39 °FPartly sunny.6 mph87%30.24 "HgN/A
9:30 am37 °FPartly sunny.6 mph93%30.24 "HgN/A
9:00 am36 °FPartly sunny.6 mph93%30.27 "HgN/A
8:30 am36 °FOvercast.6 mph93%30.27 "HgN/A
8:00 am34 °FOvercast.1 mph100%30.27 "HgN/A
7:30 am34 °FChilly.8 mph93%30.27 "HgN/A
7:00 am32 °FChilly.8 mph100%30.27 "HgN/A
6:30 am30 °FChilly.8 mph93%30.27 "HgN/A
6:00 am28 °FChilly.6 mph93%30.30 "HgN/A
5:30 am27 °FClear.8 mph100%30.30 "HgN/A
5:00 am27 °FClear.6 mph100%30.30 "HgN/A
4:30 am27 °FChilly.8 mph93%30.33 "HgN/A
4:00 am27 °FClear.8 mph93%30.33 "HgN/A
3:30 am27 °FClear.6 mph93%30.36 "HgN/A
3:00 am27 °FClear.8 mph93%30.36 "HgN/A
2:30 am27 °FChilly.8 mph93%30.36 "HgN/A
2:00 am27 °FClear.8 mph86%30.36 "HgN/A
1:30 am27 °FClear.8 mph86%30.39 "HgN/A
1:00 am27 °FClear.6 mph93%30.39 "HgN/A
12:30 am27 °FClear.6 mph86%30.39 "HgN/A
12:00 am25 °FClear.8 mph93%30.42 "HgN/A
11:30 pm
Mon, Jan 23
25 °FClear.6 mph93%30.42 "HgN/A
11:00 pm27 °FClear.8 mph93%30.42 "HgN/A
10:30 pm27 °FClear.8 mph93%30.42 "HgN/A
10:00 pm27 °FClear.6 mph93%30.42 "HgN/A
9:30 pm27 °FClear.6 mph93%30.42 "HgN/A
9:00 pm27 °FClear.6 mph93%30.45 "HgN/A
8:30 pm25 °FClear.6 mph100%30.45 "HgN/A
8:00 pm27 °FClear.3 mph93%30.45 "HgN/A
7:30 pm27 °FClear.3 mph93%30.45 "HgN/A
7:00 pm28 °FClear.3 mph93%30.45 "Hg10 mi
6:30 pm30 °FClear.1 mph86%30.48 "Hg10 mi
5:30 pm34 °FClear.1 mph81%30.48 "Hg10 mi
5:00 pm36 °FSunny.1 mph70%30.48 "Hg10 mi
4:30 pm37 °FSunny.3 mph65%30.48 "Hg10 mi
4:00 pm37 °FPassing clouds.3 mph70%30.48 "HgN/A
Weather by CustomWeather, © 2017

See weather overviewHow to use our weather pages